GW7208 Weather Reports


time (UTC)temp
C
wind
direction
speed
KPH
gust
KPH
rain 1hr
cm
rain 24hr
cm
rain mn
cm
humidity
%
barometer
mb
20260506193018 19 227 4.8 8.0 0.00 0.00 0.15 76 1008.1
20260506192521 19 241 16.1 27.4 0.00 0.00 0.15 76 1008.2
20260506192017 19 241 3.2 6.4 0.00 0.00 0.15 76 1008.2
20260506191519 19 239 8.0 19.3 0.00 0.00 0.15 76 1008.2
20260506191018 19 237 4.8 9.7 0.00 0.00 0.15 76 1008.2
20260506190517 19 262 9.7 19.3 0.00 0.00 0.15 76 1008.2
20260506190018 19 258 6.4 11.3 0.00 0.00 0.15 77 1008.1
20260506185518 19 253 6.4 11.3 0.00 0.00 0.15 77 1008.2
20260506185017 18 238 8.0 14.5 0.00 0.00 0.15 77 1008.3
20260506184518 18 238 9.7 17.7 0.00 0.00 0.15 77 1008.2
20260506184017 18 241 6.4 14.5 0.00 0.00 0.15 78 1008.3
20260506183518 18 252 3.2 9.7 0.00 0.00 0.15 78 1008.5
20260506183018 18 242 6.4 16.1 0.00 0.00 0.15 78 1008.4
20260506182517 18 251 11.3 17.7 0.00 0.00 0.15 78 1008.5
20260506182019 18 250 8.0 14.5 0.00 0.00 0.15 79 1008.5
20260506181517 18 239 8.0 14.5 0.00 0.00 0.15 78 1008.5
20260506181017 18 243 8.0 17.7 0.00 0.00 0.15 77 1008.6
20260506180517 18 264 14.5 19.3 0.00 0.00 0.15 76 1008.5
20260506180018 18 242 6.4 9.7 0.00 0.00 0.15 76 1008.6
20260506175517 18 253 9.7 19.3 0.03 0.00 0.15 75 1008.5
20260506175018 18 254 6.4 16.1 0.03 0.00 0.15 76 1008.6
20260506174517 18 233 11.3 22.5 0.03 0.00 0.15 76 1008.6
20260506174017 18 242 8.0 17.7 0.05 0.00 0.15 76 1008.6
20260506173518 18 237 8.0 12.9 0.05 0.00 0.15 77 1008.7
20260506173018 18 246 6.4 14.5 0.08 0.00 0.15 77 1008.8
20260506172517 18 236 3.2 9.7 0.08 0.00 0.18 77 1008.8
20260506172017 18 244 6.4 14.5 0.10 0.00 0.18 77 1008.9
20260506171517 18 241 6.4 11.3 0.10 0.00 0.18 77 1008.9
20260506171018 18 244 12.9 22.5 0.10 0.00 0.18 77 1008.9
20260506170518 19 244 8.0 14.5 0.13 0.00 0.18 77 1008.7
20260506170017 19 228 6.4 16.1 0.13 0.00 0.18 77 1008.9
20260506165518 19 236 6.4 9.7 0.10 0.00 0.18 77 1008.8
20260506165017 19 243 6.4 11.3 0.10 0.00 0.15 78 1009.0
20260506164517 19 248 6.4 16.1 0.10 0.00 0.15 79 1008.9
20260506164017 19 249 9.7 17.7 0.08 0.00 0.15 78 1009.0
20260506163517 19 231 4.8 11.3 0.10 0.00 0.15 79 1009.0
20260506163018 18 250 4.8 11.3 0.10 0.00 0.13 78 1009.2
20260506162518 18 239 8.0 19.3 0.10 0.00 0.15 77 1009.4
20260506162018 18 251 4.8 9.7 0.08 0.00 0.15 78 1009.5
20260506161518 19 255 9.7 14.5 0.08 0.00 0.13 76 1009.8
20260506161017 19 250 6.4 12.9 0.08 0.00 0.10 75 1010.0
20260506160517 19 255 8.0 12.9 0.08 0.00 0.08 75 1010.1
20260506160018 19 277 3.2 9.7 0.05 0.00 0.08 74 1010.1
20260506155517 19 235 4.8 6.4 0.05 0.00 0.08 73 1010.2
20260506155021 19 256 6.4 9.7 0.05 0.00 0.08 72 1010.1
20260506154517 19 276 4.8 9.7 0.03 0.00 0.05 73 1010.3
20260506154019 19 255 8.0 14.5 0.03 0.00 0.05 72 1010.2
20260506153518 20 255 9.7 24.1 0.03 0.00 0.05 70 1010.2
20260506153017 20 236 6.4 16.1 0.03 0.00 0.03 70 1010.2
20260506152518 20 249 11.3 19.3 0.03 0.00 0.03 68 1010.1
20260506152018 20 263 6.4 11.3 0.00 0.00 0.03 67 1010.0
20260506151517 20 311 12.9 22.5 0.00 0.00 0.03 65 1010.0
20260506151017 20 254 9.7 17.7 0.00 0.00 0.03 64 1010.1
20260506150517 21 211 9.7 20.9 0.00 0.00 0.00 64 1009.9
20260506150019 21 254 11.3 16.1 0.00 0.00 0.00 64 1009.8
20260506145518 21 249 9.7 20.9 0.00 0.00 0.00 64 1009.9
20260506145018 21 238 6.4 17.7 0.00 0.00 0.00 63 1009.9
20260506144519 21 241 6.4 12.9 0.00 0.00 0.00 64 1010.1
20260506144017 21 236 6.4 11.3 0.00 0.00 0.00 63 1010.1
20260506143517 21 255 6.4 12.9 0.00 0.00 0.00 63 1010.1
20260506143018 21 256 9.7 17.7 0.00 0.00 0.00 62 1010.1
20260506142519 21 255 12.9 17.7 0.00 0.00 0.00 62 1010.1
20260506142019 21 243 8.0 14.5 0.00 0.00 0.00 61 1010.0
20260506141518 21 223 3.2 9.7 0.00 0.00 0.00 61 1010.1
20260506141017 21 246 9.7 20.9 0.00 0.00 0.00 61 1010.0
20260506140517 21 256 11.3 27.4 0.00 0.00 0.00 61 1010.0
20260506140018 21 241 9.7 16.1 0.00 0.00 0.00 61 1010.0
20260506135517 21 233 11.3 19.3 0.00 0.00 0.00 61 1010.0
20260506135017 21 243 8.0 17.7 0.00 0.00 0.00 62 1009.9
20260506134520 20 239 6.4 12.9 0.00 0.00 0.00 63 1009.8
20260506134018 20 250 9.7 19.3 0.00 0.00 0.00 64 1009.9
20260506133518 20 233 8.0 16.1 0.00 0.00 0.00 64 1009.9
20260506133019 20 247 9.7 17.7 0.00 0.00 0.00 64 1009.9
20260506132518 20 255 8.0 19.3 0.00 0.00 0.00 64 1009.9
20260506132018 20 252 6.4 12.9 0.00 0.00 0.00 64 1009.9
20260506131518 20 246 9.7 17.7 0.00 0.00 0.00 65 1010.0
20260506131017 20 245 12.9 20.9 0.00 0.00 0.00 65 1010.2
20260506130517 20 251 9.7 20.9 0.00 0.00 0.00 65 1010.2
20260506130017 20 244 9.7 12.9 0.00 0.00 0.00 65 1010.3
20260506125517 20 229 6.4 9.7 0.00 0.00 0.00 65 1010.3
20260506125017 20 225 8.0 19.3 0.00 0.00 0.00 65 1010.1
20260506124517 20 244 12.9 24.1 0.00 0.00 0.00 65 1010.0
20260506124017 20 244 4.8 9.7 0.00 0.00 0.00 66 1010.1
20260506123518 20 241 9.7 14.5 0.00 0.00 0.00 67 1010.1
20260506123017 20 261 9.7 14.5 0.00 0.00 0.00 67 1010.1
20260506122517 20 218 8.0 14.5 0.00 0.00 0.00 68 1010.1
20260506122018 19 239 9.7 16.1 0.00 0.00 0.00 67 1010.1
20260506121518 19 225 8.0 14.5 0.00 0.00 0.00 69 1009.9
20260506121022 19 246 4.8 16.1 0.00 0.00 0.00 69 1010.1
20260506120520 19 238 9.7 14.5 0.00 0.00 0.00 69 1010.2
20260506120017 18 216 6.4 14.5 0.00 0.00 0.00 70 1010.1
20260506115519 18 212 4.8 9.7 0.00 0.00 0.00 71 1010.1
20260506115018 18 240 8.0 14.5 0.00 0.00 0.00 72 1010.1
20260506114517 18 230 9.7 17.7 0.00 0.00 0.00 71 1010.2
20260506114017 18 245 14.5 19.3 0.00 0.00 0.00 71 1010.1
20260506113518 18 246 12.9 25.7 0.00 0.00 0.00 72 1010.1
20260506113017 18 225 6.4 14.5 0.00 0.00 0.00 72 1010.1
20260506112518 18 250 6.4 12.9 0.00 0.00 0.00 72 1010.1
20260506112019 18 224 4.8 9.7 0.00 0.00 0.00 72 1010.1
20260506111518 18 211 6.4 11.3 0.00 0.00 0.00 72 1010.1
20260506111018 18 234 3.2 8.0 0.00 0.00 0.00 72 1010.1
20260506110519 18 248 8.0 17.7 0.00 0.00 0.00 73 1010.2
20260506110017 18 240 6.4 16.1 0.00 0.00 0.00 73 1010.1
20260506105518 18 212 8.0 17.7 0.00 0.00 0.00 73 1010.1
20260506105017 18 251 6.4 17.7 0.00 0.00 0.00 74 1010.1
20260506104518 18 216 3.2 9.7 0.00 0.00 0.00 74 1010.1
20260506104021 18 216 6.4 11.3 0.00 0.00 0.00 74 1010.1
20260506103517 18 232 4.8 9.7 0.00 0.00 0.00 75 1010.2
20260506103017 18 221 6.4 9.7 0.00 0.00 0.00 75 1010.1
20260506102518 18 224 9.7 16.1 0.00 0.00 0.00 75 1010.1
20260506102017 18 226 6.4 11.3 0.00 0.00 0.00 75 1010.0
20260506101519 18 219 6.4 12.9 0.00 0.00 0.00 75 1010.1
20260506101018 18 216 6.4 12.9 0.00 0.00 0.00 75 1010.2
20260506100517 18 217 8.0 11.3 0.00 0.00 0.00 75 1010.2
20260506100017 18 238 4.8 9.7 0.00 0.00 0.00 75 1010.2
20260506095517 18 216 4.8 9.7 0.00 0.00 0.00 75 1010.2
20260506095018 18 215 3.2 9.7 0.00 0.00 0.00 75 1010.2
20260506094519 18 204 4.8 8.0 0.00 0.00 0.00 75 1010.1
20260506094017 18 261 6.4 12.9 0.00 0.00 0.00 75 1010.0
20260506093518 18 209 6.4 17.7 0.00 0.00 0.00 75 1010.0
20260506093018 18 258 8.0 16.1 0.00 0.00 0.00 75 1010.0
20260506092518 18 233 6.4 12.9 0.00 0.00 0.00 75 1010.0
20260506092017 18 230 4.8 8.0 0.00 0.00 0.00 75 1010.0
20260506091518 18 226 4.8 8.0 0.00 0.00 0.00 75 1010.0
20260506091017 18 224 4.8 9.7 0.00 0.00 0.00 75 1010.1
20260506090517 18 225 6.4 12.9 0.00 0.00 0.00 75 1010.1
20260506090017 18 239 4.8 9.7 0.00 0.00 0.00 75 1010.1
20260506085518 18 236 6.4 11.3 0.00 0.00 0.00 75 1010.2
20260506085017 18 241 4.8 8.0 0.00 0.00 0.00 75 1010.2
20260506084519 18 211 8.0 11.3 0.00 0.00 0.00 75 1010.2
20260506084017 18 210 4.8 12.9 0.00 0.00 0.00 75 1010.2
20260506083517 18 195 4.8 12.9 0.00 0.00 0.00 75 1010.2
20260506082534 18 218 8.0 12.9 0.00 0.00 0.00 75 1010.2
20260506082017 18 217 8.0 16.1 0.00 0.00 0.00 74 1010.3
20260506081517 18 235 6.4 14.5 0.00 0.00 0.00 74 1010.4
20260506081017 18 227 4.8 9.7 0.00 0.00 0.00 74 1010.3
20260506080518 18 228 6.4 12.9 0.00 0.00 0.00 74 1010.3
20260506073522 19 215 6.4 16.1 0.00 0.00 0.00 73 1010.3
20260506073017 19 231 4.8 11.3 0.00 0.00 0.00 73 1010.3
20260506072517 19 218 6.4 12.9 0.00 0.00 0.00 73 1010.3
20260506072018 19 229 6.4 11.3 0.00 0.00 0.00 73 1010.3
20260506071518 19 226 4.8 9.7 0.00 0.00 0.00 73 1010.3
20260506071017 19 222 6.4 12.9 0.00 0.00 0.00 73 1010.4
20260506070518 19 223 6.4 14.5 0.00 0.00 0.00 73 1010.4
20260506062517 20 224 6.4 16.1 0.00 0.00 0.00 70 1010.5
20260506062018 20 233 4.8 9.7 0.00 0.00 0.00 70 1010.6
20260506061517 20 217 3.2 6.4 0.00 0.00 0.00 70 1010.6
20260506061017 20 247 4.8 11.3 0.00 0.00 0.00 70 1010.6
20260506060518 20 255 6.4 12.9 0.00 0.00 0.00 70 1010.6
20260506051017 20 240 6.4 12.9 0.00 0.00 0.00 68 1011.0
20260506050518 20 246 6.4 14.5 0.00 0.00 0.00 68 1011.0
20260506045018 20 239 4.8 12.9 0.00 0.00 0.00 67 1011.1
20260506044518 20 235 6.4 14.5 0.00 0.00 0.00 66 1011.1
20260506044018 20 243 4.8 9.7 0.00 0.00 0.00 66 1011.1
20260506043519 20 249 4.8 8.0 0.00 0.00 0.00 66 1011.1
20260506043017 20 225 6.4 11.3 0.00 0.00 0.00 65 1011.1
20260506042517 20 251 9.7 17.7 0.00 0.00 0.00 65 1011.1
20260506042020 20 220 8.0 16.1 0.00 0.00 0.00 65 1011.1
20260506041517 20 238 6.4 12.9 0.00 0.00 0.00 65 1011.1
20260506041017 20 230 6.4 9.7 0.00 0.00 0.00 64 1011.1
20260506040517 21 241 9.7 16.1 0.00 0.00 0.00 64 1011.0
20260506040018 21 249 8.0 17.7 0.00 0.00 0.00 64 1011.0
20260506035517 21 233 3.2 8.0 0.00 0.00 0.00 63 1011.0
20260506035017 21 236 4.8 9.7 0.00 0.00 0.00 63 1011.0
20260506034518 21 249 8.0 14.5 0.00 0.00 0.00 63 1010.9
20260506034018 21 228 6.4 11.3 0.00 0.00 0.00 63 1010.9
20260506033517 21 228 6.4 14.5 0.00 0.00 0.00 62 1010.8
20260506033017 21 232 6.4 17.7 0.00 0.00 0.00 62 1010.9
20260506032517 21 216 6.4 12.9 0.00 0.00 0.00 62 1010.9
20260506032019 21 219 6.4 12.9 0.00 0.00 0.00 62 1011.0
20260506031517 21 227 3.2 4.8 0.00 0.00 0.00 61 1010.9
20260506031017 21 218 4.8 9.7 0.00 0.00 0.00 61 1011.0
20260506030517 21 248 11.3 14.5 0.00 0.00 0.00 60 1011.0
20260506030018 21 217 4.8 9.7 0.00 0.00 0.00 60 1011.0
20260506025517 21 245 4.8 9.7 0.00 0.00 0.00 60 1011.1
20260506025018 21 226 6.4 11.3 0.00 0.00 0.00 59 1011.0
20260506024517 21 237 4.8 12.9 0.00 0.00 0.00 59 1011.0
20260506024017 21 224 8.0 16.1 0.00 0.00 0.00 59 1011.0
20260506023517 21 226 4.8 9.7 0.00 0.00 0.00 59 1011.1
20260506023017 21 217 6.4 16.1 0.00 0.00 0.00 58 1011.1
20260506022517 21 222 6.4 9.7 0.00 0.00 0.00 58 1011.0
20260506022017 21 228 3.2 8.0 0.00 0.00 0.00 57 1011.1
20260506021517 21 253 4.8 8.0 0.00 0.00 0.00 57 1011.1
20260506021018 21 225 8.0 14.5 0.00 0.00 0.00 58 1011.0
20260506020517 21 230 3.2 6.4 0.00 0.00 0.00 58 1011.0
20260506020018 21 243 6.4 9.7 0.00 0.00 0.00 58 1011.0
20260506015518 21 244 4.8 9.7 0.00 0.00 0.00 58 1011.0
20260506015017 21 249 8.0 16.1 0.00 0.00 0.00 58 1010.9
20260506014517 21 230 3.2 8.0 0.00 0.00 0.00 59 1010.8
20260506014018 21 250 4.8 9.7 0.00 0.00 0.00 58 1010.8
20260506013518 21 225 6.4 9.7 0.00 0.00 0.00 58 1010.7
20260506013018 22 233 4.8 8.0 0.00 0.00 0.00 58 1010.8
20260506012517 22 227 9.7 16.1 0.00 0.00 0.00 57 1010.7
20260506012018 22 209 4.8 19.3 0.00 0.00 0.00 57 1010.7
20260506011517 22 241 3.2 6.4 0.00 0.00 0.00 57 1010.7
20260506011017 22 221 8.0 17.7 0.00 0.00 0.00 56 1010.6
20260506010518 22 212 3.2 6.4 0.00 0.00 0.00 55 1010.5
20260506010017 22 226 3.2 4.8 0.00 0.00 0.00 54 1010.5
20260506005517 23 219 3.2 8.0 0.00 0.00 0.00 53 1010.4
20260506005017 23 214 6.4 11.3 0.00 0.00 0.00 52 1010.4
20260506004518 23 223 4.8 6.4 0.00 0.00 0.00 50 1010.3
20260506004017 23 202 3.2 8.0 0.00 0.00 0.00 49 1010.2
20260506003518 23 212 6.4 9.7 0.00 0.00 0.00 49 1010.2
20260506003018 23 219 6.4 9.7 0.00 0.00 0.00 48 1010.2
20260506002517 24 210 6.4 11.3 0.00 0.00 0.00 47 1010.1
20260506002018 24 232 3.2 4.8 0.00 0.00 0.00 46 1010.0
20260506001517 25 220 8.0 12.9 0.00 0.00 0.00 45 1009.8
20260506001018 25 192 8.0 14.5 0.00 0.00 0.00 44 1009.8
20260506000517 25 209 3.2 8.0 0.00 0.00 0.00 44 1009.8
20260506000019 25 214 6.4 11.3 0.00 0.00 0.00 43 1009.7
20260505235518 25 223 6.4 12.9 0.00 0.00 0.00 42 1009.6
20260505235017 25 215 6.4 12.9 0.00 0.00 0.00 41 1009.7
20260505234517 26 196 3.2 6.4 0.00 0.00 0.00 41 1009.6
20260505234021 26 242 6.4 11.3 0.00 0.00 0.00 40 1009.6
20260505233517 26 245 9.7 16.1 0.00 0.00 0.00 40 1009.5
20260505233017 26 237 6.4 9.7 0.00 0.00 0.00 40 1009.5
20260505232517 26 224 6.4 12.9 0.00 0.00 0.00 40 1009.3
20260505232018 26 225 6.4 19.3 0.00 0.00 0.00 40 1009.3
20260505231517 26 221 8.0 12.9 0.00 0.00 0.00 40 1009.2
20260505231017 26 225 6.4 9.7 0.00 0.00 0.00 40 1009.3
20260505230517 26 218 6.4 12.9 0.00 0.00 0.00 40 1009.3
20260505230017 26 219 8.0 17.7 0.00 0.00 0.00 39 1009.2
20260505225517 26 236 6.4 12.9 0.00 0.00 0.00 39 1009.2
20260505225017 26 252 8.0 14.5 0.00 0.00 0.00 39 1009.2
20260505224517 26 249 9.7 16.1 0.00 0.00 0.00 39 1009.3
20260505224017 27 248 11.3 22.5 0.00 0.00 0.00 39 1009.1
20260505223517 27 235 14.5 25.7 0.00 0.00 0.00 39 1009.3
20260505223017 27 222 9.7 17.7 0.00 0.00 0.00 39 1009.1
20260505222517 27 232 6.4 16.1 0.00 0.00 0.00 39 1009.2
20260505222017 27 217 8.0 11.3 0.00 0.00 0.00 39 1009.1
20260505221517 27 245 9.7 19.3 0.00 0.00 0.00 38 1009.2
20260505221019 27 247 9.7 16.1 0.00 0.00 0.00 37 1009.0
20260505220517 27 240 6.4 16.1 0.00 0.00 0.00 36 1009.0
20260505220017 28 238 9.7 24.1 0.00 0.00 0.00 36 1009.0
20260505215517 28 244 6.4 11.3 0.00 0.00 0.00 35 1009.0
20260505215017 28 242 8.0 12.9 0.00 0.00 0.00 34 1009.0
20260505214517 28 242 11.3 20.9 0.00 0.00 0.00 33 1008.9
20260505214018 28 253 6.4 11.3 0.00 0.00 0.00 33 1009.0
20260505213517 28 244 9.7 17.7 0.00 0.00 0.00 33 1009.0
20260505213017 28 240 8.0 16.1 0.00 0.00 0.00 33 1008.9
20260505212518 28 228 3.2 9.7 0.00 0.00 0.00 33 1009.0
20260505212018 28 252 14.5 20.9 0.00 0.00 0.00 32 1008.8
20260505211517 28 256 11.3 22.5 0.00 0.00 0.00 32 1008.9
20260505211017 28 246 8.0 25.7 0.00 0.00 0.00 32 1008.8
20260505210518 28 251 11.3 19.3 0.00 0.00 0.00 31 1008.8
20260505210017 28 253 9.7 16.1 0.00 0.00 0.00 31 1008.7
20260505205032 28 240 9.7 17.7 0.00 0.00 0.00 30 1008.8
20260505204517 28 246 8.0 16.1 0.00 0.00 0.00 30 1008.7
20260505204018 28 229 14.5 22.5 0.00 0.00 0.00 30 1008.9
20260505203517 28 245 8.0 14.5 0.00 0.00 0.00 30 1008.8
20260505203017 28 245 9.7 17.7 0.00 0.00 0.00 29 1008.7
20260505202517 28 243 12.9 20.9 0.00 0.00 0.00 29 1008.7
20260505202017 28 245 12.9 20.9 0.00 0.00 0.00 29 1008.7
20260505201517 29 259 11.3 22.5 0.00 0.00 0.00 29 1008.7
20260505201018 29 252 8.0 16.1 0.00 0.00 0.00 30 1008.8
20260505200518 29 244 8.0 16.1 0.00 0.00 0.00 29 1008.8
20260505200020 29 236 12.9 29.0 0.00 0.00 0.00 30 1008.8
20260505195518 29 259 8.0 17.7 0.00 0.00 0.00 30 1008.8
20260505195018 29 235 6.4 12.9 0.00 0.00 0.00 30 1008.8
20260505194518 29 261 9.7 19.3 0.00 0.00 0.00 29 1008.8
20260505194018 29 274 8.0 14.5 0.00 0.00 0.00 31 1008.9
20260505193517 29 217 8.0 22.5 0.00 0.00 0.00 32 1008.9